Location: Riedlingen
(48.1569°N, 9.4757°E)
Time: 03:34:13
(UTC+02:00)

ISS - Pass Details

Date: 22 May 2021
Orbit: 417 x 422 km, 51.6° (Epoch: 15 June)

Event Time Altitude Azimuth Distance (km) Brightness Sun altitude
Rises 22:56:29 0° 284° (WNW) 2,367 0.9 -14.3°
Reaches altitude 10° 22:58:39 10° 291° (WNW) 1,503 -0.1 -14.5°
Maximum altitude 23:01:55 46° 6° (N) 576 -2.7 -14.8°
Drops below altitude 10° 23:05:11 10° 82° (E) 1,505 -1.2 -15.1°
Enters shadow 23:05:15 10° 82° (E) 1,528 -1.2 -15.1°
